Regional Weather Roundup
Issued by NWS

Home | Current Version | Previous Version | Graphics & Text | Print | Product List | Glossary On
Versions: 1 2 3 4 5 6 7 8 9 10 11 12 13 14 15 16 17 18 19 20 21 22 23 24 25 26 27 28 29 30 31 32 33 34 35 36 37 38 39 40 41 42 43 44 45 46 47 48 49 50
000
ASUS45 KTFX 210904
RWRMT
MONTANA HOURLY WEATHER ROUNDUP
NATIONAL WEATHER SERVICE GREAT FALLS MT
304 AM MDT SUN SEP 21 2014

NOTE: "FAIR" INDICATES FEW OR NO CLOUDS BELOW 12000 FEET WITH NO
SIGNIFICANT WEATHER AND/OR OBSTRUCTIONS TO VISIBILITY.

* THESE STATIONS ARE NOT UNDER NWS QUALITY CONTROL. THEY DO NOT
   REPORT WEATHER SUCH AS PRECIPITATION OR FOG.

MTZ001>007-043-211000-
WEST OF THE DIVIDE
CITY           SKY/WX    TMP DP  RH WIND       PRES   REMARKS
KALISPELL      CLEAR     46  43  89 CALM      30.16F
MISSOULA       CLEAR     50  39  66 CALM      30.19R
BUTTE          CLEAR     45  36  71 CALM      30.30F
MULLAN PASS    CLEAR     55  36  49 SE12G20   30.25F
* ESSEX        N/A       51  41  69 S16        N/A
* LINCOLN      N/A       44  38  80 N2G8       N/A
* LOOKOUT PASS N/A       51  37  59 S2         N/A
* POLSON       N/A       54  44  69 N/A        N/A
* RONAN APT    CLEAR     45  37  74 N/A        N/A
* SEELEY LAKE  N/A       37  32  82 N/A        N/A
* THOMP F APT  CLEAR     55  38  53 N3G9       N/A
$$

MTZ008-052>055-211000-
SOUTHWEST MONTANA
CITY           SKY/WX    TMP DP  RH WIND       PRES   REMARKS
BOZEMAN        CLEAR     48  41  77 W6        30.27F
DILLON         CLEAR     43  36  76 S6        30.27S
W YELLOWSTONE  CLEAR     32  32 100 CALM      30.36S
* THREE FORKS  CLEAR     39  21  48 N/A        N/A
* BOULDER HILL N/A       50  36  59 SW2        N/A
* MONIDA PASS  N/A       45  34  65 W4         N/A
* RAYNOLDS PAS N/A       44   9  24 N/A        N/A
* WHITEHALL    N/A       49  37  63 N8G14      N/A
* WISE RIVER   N/A       42  30  63 NE2        N/A
$$

MTZ009>010-012-014-046-048-049-054-211000-
EAST SLOPES AND CENTRAL MONTANA
CITY           SKY/WX    TMP DP  RH WIND       PRES   REMARKS
CUT BANK       CLEAR     43  37  79 NW3       30.27S
GREAT FALLS    CLEAR     45  41  86 W3        30.26S
HELENA         CLEAR     50  41  71 CALM      30.26S
MALMSTROM AFB  CLEAR     48  41  77 NE2       30.27S
* CONRAD       CLEAR     39  39 100 N/A        N/A
* EAST GLACIER N/A       45  41  86 NW9        N/A
* MONARCH      N/A       44  38  80 SW1        N/A
* PENDROY      N/A       48  43  83 W4         N/A
* ROGERS PASS  N/A       47  39  74 NW3        N/A
* SAINT MARY   N/A       39  37  93 SE3        N/A
* SWEET GRASS  N/A       53  35  51 S15        N/A
$$

MTZ011-013-016-021-035-040-045-047-050-051-211000-
NORTH CENTRAL MONTANA
CITY           SKY/WX    TMP DP  RH WIND       PRES   REMARKS
HAVRE          CLEAR     43  37  79 SW6       30.26S
LEWISTOWN      CLEAR     48  41  77 E12       30.30S
* CHESTER      N/A       41  35  79 N3         N/A
* DENTON       N/A       45  43  93 S11        N/A
* GEYSER       N/A       42  41  96 S9         N/A
* JUDITH GAP   N/A       48  44  86 S7         N/A
* LOMA         N/A       49  40  71 NE9        N/A
$$

MTZ017>020-022>027-061-062-211000-
NORTHEAST MONTANA
CITY           SKY/WX    TMP DP  RH WIND       PRES   REMARKS
GLASGOW        CLEAR     45  36  71 CALM      30.26S
JORDAN         CLEAR     41  37  86 W6        30.28S
SIDNEY         CLEAR     45  36  71 CALM      30.26S
WOLF POINT     CLEAR     39  36  89 W7        30.27R WCI  34
* BEAVER HILL  N/A       47  33  58 S7         N/A
* CIRCLE       N/A       43  36  76 N/A        N/A
* LINDSAY DVD  N/A       42  34  73 NW6        N/A
$$

MTZ028>042-056>058-211000-
SOUTHCENTRAL AND SOUTHEAST MONTANA
CITY           SKY/WX    TMP DP  RH WIND       PRES   REMARKS
BAKER          CLEAR     37  34  89 CALM      30.30R
BILLINGS       CLEAR     52  41  66 N7        30.28F
LIVINGSTON     CLEAR     46  39  77 W5        30.31S
MILES CITY     CLEAR     45  37  74 NW6       30.29R
* LAUREL APT   CLEAR     54  39  57 N6         N/A
* ROUNDUP APT  CLEAR     52  37  57 N/A        N/A
* ALZADA       N/A       42  37  83 E3         N/A
* HYSHAM       N/A       54  35  49 SE4        N/A
* LAME DEER    N/A       56  34  44 E4         N/A
* REED POINT   N/A       44  42  93 E1         N/A
* ROSCOE HILL  N/A       51  35  54 SW4        N/A
$$

REGIONAL REPORTS...DAKOTAS
CITY           SKY/WX    TMP DP  RH WIND       PRES   REMARKS
WILLISTON      CLEAR     48  36  63 W7        30.23R
DICKINSON      CLEAR     41  34  76 W8        30.23R
BEACH          N/A       41  34  76 CALM      30.28R
CROSBY         CLEAR     46  41  83 W9        30.21R
TIOGA          CLEAR     41  41 100 W8        30.24R
WATFORD CITY   CLEAR     45  36  71 SW7       30.21R
BISMARCK       CLEAR     50  43  77 NW7       30.19R
GRAND FORKS    CLEAR     48  46  93 W6        30.04R
FARGO          FAIR      50  46  86 W9        30.05R
BUFFALO SD     CLEAR     48  36  63 NW8       30.23R
RAPID CITY     CLEAR     48  37  66 NW9       30.31S
$$

REGIONAL REPORTS...WYOMING/IDAHO/WASHINGTON
CITY           SKY/WX    TMP DP  RH WIND       PRES   REMARKS
GILLETTE       CLEAR     39  36  89 CALM      30.33F
SHERIDAN       CLEAR     45  39  80 NW6       30.30F
CODY           CLEAR    N/A N/A N/A N/A        N/A
YELLOWSTONE LA CLEAR     36  34  92 NW3       30.44S
SALMON         PTCLDY    45  39  80 CALM      30.18R
MULLAN PASS    CLEAR     55  36  49 SE12G20   30.25S
SAND POINT     CLEAR     54  45  72 N6        30.08F
SPOKANE        CLEAR     63  43  48 NE8       30.04S

$$



USA.gov is the U.S. government's official web portal to all federal, state and local government web resources and services.